Time,TemperatureF,DewpointF,PressureIn,WindDirection,WindDirectionDegrees,WindSpeedMPH,WindSpeedGustMPH,Humidity,HourlyPrecipIn,Conditions,Clouds,dailyrainin,SolarRadiationWatts/m^2,SoftwareType,DateUTC
2013-02-22 00:05:00,25.8,16.0,30.29,North,5,9.0,13.0,66,0.00,,,0.00,0,weatherlink.com 1.10,2013-02-22 05:05:00,
2013-02-22 00:20:00,25.8,16.0,30.29,NNE,18,5.0,11.0,66,0.00,,,0.00,0,weatherlink.com 1.10,2013-02-22 05:20:00,
2013-02-22 00:36:00,25.6,16.0,30.30,North,360,3.0,8.0,67,0.00,,,0.00,0,weatherlink.com 1.10,2013-02-22 05:36:00,
2013-02-22 00:51:00,25.2,16.0,30.29,NNW,338,5.0,7.0,68,0.00,,,0.00,0,weatherlink.com 1.10,2013-02-22 05:51:00,
2013-02-22 01:05:00,25.0,16.0,30.30,NNW,329,5.0,7.0,69,0.00,,,0.00,0,weatherlink.com 1.10,2013-02-22 06:05:00,
2013-02-22 01:21:00,24.7,16.0,30.30,NW,304,4.0,6.0,70,0.00,,,0.00,0,weatherlink.com 1.10,2013-02-22 06:21:00,
2013-02-22 01:36:00,24.5,16.0,30.30,WNW,298,2.0,5.0,70,0.00,,,0.00,0,weatherlink.com 1.10,2013-02-22 06:36:00,
2013-02-22 01:50:00,24.4,16.0,30.31,NW,319,1.0,7.0,71,0.00,,,0.00,0,weatherlink.com 1.10,2013-02-22 06:50:00,
2013-02-22 02:05:00,24.4,16.0,30.32,NW,323,3.0,7.0,71,0.00,,,0.00,0,weatherlink.com 1.10,2013-02-22 07:05:00,
2013-02-22 02:20:00,24.1,16.0,30.31,NNW,335,4.0,6.0,72,0.00,,,0.00,0,weatherlink.com 1.10,2013-02-22 07:20:00,
2013-02-22 02:35:00,24.0,17.0,30.32,NNW,341,2.0,4.0,73,0.00,,,0.00,0,weatherlink.com 1.10,2013-02-22 07:35:00,
2013-02-22 02:51:00,24.2,17.0,30.33,NNW,345,3.0,7.0,73,0.00,,,0.00,0,weatherlink.com 1.10,2013-02-22 07:51:00,
2013-02-22 03:06:00,24.2,17.0,30.32,NW,325,5.0,7.0,73,0.00,,,0.00,0,weatherlink.com 1.10,2013-02-22 08:06:00,
2013-02-22 03:21:00,24.3,17.0,30.32,North,355,5.0,8.0,73,0.00,,,0.00,0,weatherlink.com 1.10,2013-02-22 08:21:00,
2013-02-22 03:37:00,24.3,17.0,30.33,North,355,2.0,6.0,74,0.00,,,0.00,0,weatherlink.com 1.10,2013-02-22 08:37:00,
2013-02-22 03:51:00,24.3,17.0,30.33,NNW,336,3.0,6.0,75,0.00,,,0.00,0,weatherlink.com 1.10,2013-02-22 08:51:00,
2013-02-22 04:06:00,24.4,18.0,30.33,North,360,2.0,6.0,75,0.00,,,0.00,0,weatherlink.com 1.10,2013-02-22 09:06:00,
2013-02-22 04:21:00,24.2,18.0,30.34,NW,306,2.0,5.0,76,0.00,,,0.00,0,weatherlink.com 1.10,2013-02-22 09:21:00,
2013-02-22 04:36:00,24.2,18.0,30.35,NW,314,2.0,5.0,76,0.00,,,0.00,0,weatherlink.com 1.10,2013-02-22 09:36:00,
2013-02-22 04:51:00,24.1,18.0,30.34,NW,316,2.0,3.0,77,0.00,,,0.00,0,weatherlink.com 1.10,2013-02-22 09:51:00,
2013-02-22 05:06:00,23.8,18.0,30.35,NW,316,2.0,2.0,77,0.00,,,0.00,0,weatherlink.com 1.10,2013-02-22 10:06:00,
2013-02-22 05:21:00,23.7,18.0,30.35,NW,316,0.0,3.0,79,0.00,,,0.00,0,weatherlink.com 1.10,2013-02-22 10:21:00,
2013-02-22 05:37:00,23.7,18.0,30.37,NW,316,1.0,3.0,79,0.00,,,0.00,0,weatherlink.com 1.10,2013-02-22 10:37:00,
2013-02-22 05:51:00,23.6,18.0,30.38,NW,316,1.0,3.0,79,0.00,,,0.00,0,weatherlink.com 1.10,2013-02-22 10:51:00,
2013-02-22 06:07:00,23.3,18.0,30.39,NW,316,3.0,3.0,80,0.00,,,0.00,0,weatherlink.com 1.10,2013-02-22 11:07:00,
2013-02-22 06:21:00,23.5,18.0,30.39,NW,325,0.0,4.0,80,0.00,,,0.00,0,weatherlink.com 1.10,2013-02-22 11:21:00,
2013-02-22 06:36:00,23.5,18.0,30.40,West,271,2.0,5.0,79,0.00,,,0.00,5,weatherlink.com 1.10,2013-02-22 11:36:00,
2013-02-22 06:51:00,23.6,18.0,30.39,North,350,2.0,5.0,79,0.00,,,0.00,7,weatherlink.com 1.10,2013-02-22 11:51:00,
2013-02-22 07:05:00,24.0,18.0,30.39,NNW,342,2.0,5.0,78,0.00,,,0.00,16,weatherlink.com 1.10,2013-02-22 12:05:00,
2013-02-22 07:21:00,24.4,18.0,30.40,North,355,2.0,4.0,78,0.00,,,0.00,30,weatherlink.com 1.10,2013-02-22 12:21:00,
2013-02-22 07:36:00,24.9,19.0,30.40,NNW,346,2.0,4.0,78,0.00,,,0.00,54,weatherlink.com 1.10,2013-02-22 12:36:00,
2013-02-22 07:51:00,25.6,20.0,30.41,NNW,329,3.0,5.0,78,0.00,,,0.00,77,weatherlink.com 1.10,2013-02-22 12:51:00,
2013-02-22 08:06:00,26.3,20.0,30.41,NW,304,2.0,5.0,77,0.00,,,0.00,102,weatherlink.com 1.10,2013-02-22 13:06:00,
2013-02-22 08:21:00,27.1,20.0,30.41,NNE,29,4.0,6.0,76,0.00,,,0.00,107,weatherlink.com 1.10,2013-02-22 13:21:00,
2013-02-22 08:36:00,28.3,21.0,30.41,NNE,17,0.0,4.0,75,0.00,,,0.00,111,weatherlink.com 1.10,2013-02-22 13:36:00,
2013-02-22 08:51:00,29.1,22.0,30.41,NNW,348,2.0,6.0,74,0.00,,,0.00,163,weatherlink.com 1.10,2013-02-22 13:51:00,
2013-02-22 09:06:00,30.1,22.0,30.41,North,355,3.0,5.0,73,0.00,,,0.00,197,weatherlink.com 1.10,2013-02-22 14:06:00,
2013-02-22 09:21:00,30.8,23.0,30.41,NNW,347,4.0,5.0,72,0.00,,,0.00,274,weatherlink.com 1.10,2013-02-22 14:21:00,
2013-02-22 09:38:00,32.3,24.0,30.41,North,5,2.0,5.0,71,0.00,,,0.00,234,weatherlink.com 1.10,2013-02-22 14:38:00,
2013-02-22 09:51:00,33.8,25.0,30.40,NE,44,5.0,10.0,69,0.00,,,0.00,248,weatherlink.com 1.10,2013-02-22 14:51:00,
2013-02-22 10:06:00,34.5,25.0,30.41,NNE,31,5.0,8.0,69,0.00,,,0.00,243,weatherlink.com 1.10,2013-02-22 15:06:00,
2013-02-22 10:21:00,34.9,26.0,30.39,ENE,74,4.0,13.0,69,0.00,,,0.00,241,weatherlink.com 1.10,2013-02-22 15:21:00,
2013-02-22 10:37:00,35.2,26.0,30.40,East,92,8.0,11.0,69,0.00,,,0.00,425,weatherlink.com 1.10,2013-02-22 15:37:00,
2013-02-22 10:52:00,35.5,26.0,30.39,East,88,6.0,12.0,69,0.00,,,0.00,457,weatherlink.com 1.10,2013-02-22 15:52:00,
2013-02-22 11:07:00,36.4,27.0,30.39,ENE,72,8.0,13.0,68,0.00,,,0.00,527,weatherlink.com 1.10,2013-02-22 16:07:00,
2013-02-22 11:22:00,36.2,27.0,30.40,East,84,8.0,11.0,68,0.00,,,0.00,218,weatherlink.com 1.10,2013-02-22 16:22:00,
2013-02-22 11:37:00,36.1,27.0,30.39,ENE,61,8.0,10.0,69,0.00,,,0.00,178,weatherlink.com 1.10,2013-02-22 16:37:00,
2013-02-22 11:54:00,35.9,27.0,30.39,NE,52,5.0,10.0,70,0.00,,,0.00,193,weatherlink.com 1.10,2013-02-22 16:54:00,
2013-02-22 12:08:00,36.3,27.0,30.39,NE,49,6.0,10.0,70,0.00,,,0.00,279,weatherlink.com 1.10,2013-02-22 17:08:00,
2013-02-22 12:24:00,36.9,28.0,30.38,East,98,8.0,9.0,69,0.00,,,0.00,278,weatherlink.com 1.10,2013-02-22 17:24:00,
2013-02-22 12:38:00,36.5,28.0,30.38,SE,133,3.0,13.0,70,0.00,,,0.00,311,weatherlink.com 1.10,2013-02-22 17:38:00,
2013-02-22 12:53:00,36.7,28.0,30.37,East,88,2.0,11.0,70,0.00,,,0.00,223,weatherlink.com 1.10,2013-02-22 17:53:00,
2013-02-22 13:08:00,37.0,28.0,30.36,East,90,5.0,10.0,71,0.00,,,0.00,214,weatherlink.com 1.10,2013-02-22 18:08:00,
2013-02-22 13:24:00,36.6,28.0,30.35,NE,54,4.0,9.0,71,0.00,,,0.00,197,weatherlink.com 1.10,2013-02-22 18:24:00,
2013-02-22 13:38:00,36.9,29.0,30.35,SE,126,3.0,13.0,73,0.00,,,0.00,223,weatherlink.com 1.10,2013-02-22 18:38:00,
2013-02-22 13:53:00,37.0,29.0,30.35,SE,129,9.0,9.0,73,0.00,,,0.00,181,weatherlink.com 1.10,2013-02-22 18:53:00,
2013-02-22 14:08:00,36.9,29.0,30.34,East,92,5.0,9.0,74,0.00,,,0.00,149,weatherlink.com 1.10,2013-02-22 19:08:00,
2013-02-22 14:23:00,36.9,29.0,30.34,ESE,120,7.0,11.0,74,0.00,,,0.00,137,weatherlink.com 1.10,2013-02-22 19:23:00,
2013-02-22 14:38:00,36.8,29.0,30.34,ESE,113,5.0,8.0,74,0.00,,,0.00,113,weatherlink.com 1.10,2013-02-22 19:38:00,
2013-02-22 14:53:00,36.4,30.0,30.33,SE,125,1.0,11.0,76,0.00,,,0.00,97,weatherlink.com 1.10,2013-02-22 19:53:00,
2013-02-22 15:07:00,36.6,30.0,30.33,ESE,103,4.0,8.0,77,0.00,,,0.00,120,weatherlink.com 1.10,2013-02-22 20:07:00,
2013-02-22 15:22:00,37.0,30.0,30.33,SSE,150,6.0,7.0,76,0.00,,,0.00,95,weatherlink.com 1.10,2013-02-22 20:22:00,
2013-02-22 15:39:00,36.8,30.0,30.34,ESE,108,1.0,7.0,77,0.00,,,0.00,60,weatherlink.com 1.10,2013-02-22 20:39:00,
2013-02-22 15:52:00,36.6,30.0,30.35,SE,132,0.0,6.0,78,0.00,,,0.00,51,weatherlink.com 1.10,2013-02-22 20:52:00,
2013-02-22 16:07:00,36.7,30.0,30.34,East,92,3.0,6.0,78,0.00,,,0.00,42,weatherlink.com 1.10,2013-02-22 21:07:00,
2013-02-22 16:22:00,36.9,31.0,30.34,ESE,117,3.0,6.0,78,0.00,,,0.00,37,weatherlink.com 1.10,2013-02-22 21:22:00,
2013-02-22 16:37:00,36.6,31.0,30.34,East,80,2.0,8.0,79,0.00,,,0.00,21,weatherlink.com 1.10,2013-02-22 21:37:00,
2013-02-22 16:52:00,36.6,31.0,30.34,ESE,110,3.0,7.0,80,0.00,,,0.00,16,weatherlink.com 1.10,2013-02-22 21:52:00,
2013-02-22 17:07:00,36.6,31.0,30.34,ESE,122,2.0,7.0,80,0.00,,,0.00,9,weatherlink.com 1.10,2013-02-22 22:07:00,
2013-02-22 17:22:00,36.7,31.0,30.34,East,92,0.0,5.0,80,0.00,,,0.00,7,weatherlink.com 1.10,2013-02-22 22:22:00,
2013-02-22 17:37:00,36.6,31.0,30.34,East,93,3.0,6.0,81,0.00,,,0.00,0,weatherlink.com 1.10,2013-02-22 22:37:00,
2013-02-22 17:52:00,36.6,32.0,30.34,East,82,5.0,7.0,82,0.00,,,0.00,0,weatherlink.com 1.10,2013-02-22 22:52:00,
2013-02-22 18:07:00,36.6,32.0,30.34,ESE,108,1.0,8.0,82,0.00,,,0.00,0,weatherlink.com 1.10,2013-02-22 23:07:00,
2013-02-22 18:22:00,36.6,32.0,30.34,East,101,6.0,6.0,83,0.00,,,0.00,0,weatherlink.com 1.10,2013-02-22 23:22:00,
2013-02-22 18:37:00,36.7,32.0,30.33,East,94,3.0,7.0,83,0.00,,,0.00,0,weatherlink.com 1.10,2013-02-22 23:37:00,
2013-02-22 18:52:00,36.8,32.0,30.33,East,99,1.0,4.0,83,0.00,,,0.00,0,weatherlink.com 1.10,2013-02-22 23:52:00,
2013-02-22 19:09:00,36.9,32.0,30.33,ESE,103,2.0,5.0,83,0.00,,,0.00,0,weatherlink.com 1.10,2013-02-23 00:09:00,
2013-02-22 19:24:00,37.2,33.0,30.33,East,98,2.0,5.0,83,0.00,,,0.00,0,weatherlink.com 1.10,2013-02-23 00:24:00,
2013-02-22 19:38:00,37.4,33.0,30.34,East,94,2.0,3.0,84,0.00,,,0.00,0,weatherlink.com 1.10,2013-02-23 00:38:00,
2013-02-22 19:54:00,37.5,33.0,30.34,East,87,0.0,3.0,84,0.00,,,0.00,0,weatherlink.com 1.10,2013-02-23 00:54:00,
2013-02-22 20:08:00,37.6,33.0,30.34,East,96,2.0,3.0,84,0.00,,,0.00,0,weatherlink.com 1.10,2013-02-23 01:08:00,
2013-02-22 20:23:00,37.9,34.0,30.33,ESE,105,2.0,3.0,84,0.00,,,0.00,0,weatherlink.com 1.10,2013-02-23 01:23:00,
2013-02-22 20:38:00,38.1,34.0,30.33,East,96,1.0,5.0,84,0.00,,,0.00,0,weatherlink.com 1.10,2013-02-23 01:38:00,
2013-02-22 20:53:00,38.2,34.0,30.32,ENE,78,1.0,6.0,85,0.00,,,0.00,0,weatherlink.com 1.10,2013-02-23 01:53:00,
2013-02-22 21:08:00,38.2,34.0,30.32,ESE,117,2.0,4.0,85,0.00,,,0.00,0,weatherlink.com 1.10,2013-02-23 02:08:00,
2013-02-22 21:23:00,38.4,35.0,30.32,ESE,111,0.0,5.0,86,0.00,,,0.00,0,weatherlink.com 1.10,2013-02-23 02:23:00,
2013-02-22 21:39:00,38.4,35.0,30.31,ENE,78,2.0,5.0,87,0.00,,,0.00,0,weatherlink.com 1.10,2013-02-23 02:39:00,
2013-02-22 21:53:00,38.5,35.0,30.30,East,97,2.0,5.0,87,0.00,,,0.00,0,weatherlink.com 1.10,2013-02-23 02:53:00,
2013-02-22 22:08:00,38.6,35.0,30.30,ESE,115,0.0,3.0,87,0.00,,,0.00,0,weatherlink.com 1.10,2013-02-23 03:08:00,
2013-02-22 22:23:00,38.6,35.0,30.30,ESE,115,0.0,2.0,88,0.00,,,0.00,0,weatherlink.com 1.10,2013-02-23 03:23:00,
2013-02-22 22:38:00,38.5,35.0,30.30,ESE,115,0.0,2.0,88,0.00,,,0.00,0,weatherlink.com 1.10,2013-02-23 03:38:00,
2013-02-22 22:53:00,38.2,35.0,30.30,ESE,115,0.0,1.0,89,0.00,,,0.00,0,weatherlink.com 1.10,2013-02-23 03:53:00,
2013-02-22 23:08:00,37.5,35.0,30.29,ESE,115,0.0,0.0,91,0.00,,,0.00,0,weatherlink.com 1.10,2013-02-23 04:08:00,
2013-02-22 23:23:00,37.3,35.0,30.28,ESE,115,0.0,1.0,92,0.00,,,0.00,0,weatherlink.com 1.10,2013-02-23 04:23:00,
2013-02-22 23:38:00,37.3,36.0,30.28,ESE,115,0.0,1.0,93,0.01,,,0.01,0,weatherlink.com 1.10,2013-02-23 04:38:00,
2013-02-22 23:53:00,37.2,36.0,30.28,ESE,115,0.0,0.0,94,0.01,,,0.01,0,weatherlink.com 1.10,2013-02-23 04:53:00,